« Back
NWS Peachtree City, Ga » Text Product » GA Regional Weather Roundup


Printer-friendly Version
Current Version              Previous Versions:   1  2  3  4  5  6  7  8  9  

Regional Weather Roundup

768
ASUS42 KFFC 201103
RWRGA
WEATHER ROUNDUP FOR GEORGIA
NATIONAL WEATHER SERVICE PEACHTREE CITY GA
600 AM EST SAT DEC 20 2014

NOTE: "FAIR" INDICATES FEW OR NO CLOUDS BELOW 12,000 FEET WITH NO
SIGNIFICANT WEATHER AND/OR OBSTRUCTIONS TO VISIBILITY.

* = USE WITH CAUTION. THE STATIONS MARKED WITH AN ASTERISK MAY NOT
REPORT WEATHER SUCH AS PRECIPITATION, FOG, OR THUNDER AND ARE NOT
QUALITY CONTROLLED BY NWS.

THE REMARK "TC" DENOTES TEMPERATURE READING IN DEGREES CELSIUS.

GAZ001>058-201200-
NORTH GEORGIA

CITY           SKY/WX    TMP DP  RH WIND       PRES   REMARKS
ATLANTA        CLOUDY    43  40  89 NE7       30.13S
ATHENS         LGT RAIN  44  42  93 CALM      30.16R
CHAMBLEE       CLOUDY    42  40  92 CALM      30.13S FOG
PEACHTREE CITY LGT RAIN  42  41  96 CALM      30.15R FOG
ROME           CLOUDY    39  37  92 CALM      30.17R
WEST ATLANTA   CLOUDY    41  39  93 CALM      30.13F FOG
GAINESVILLE    LGT RAIN  43  41  93 E3        30.15R
CARTERSVILLE   LGT RAIN  39  37  92 CALM      30.16S FOG


CITY           SKY/WX    TMP DP  RH WIND       PRES   REMARKS
DALTON*        DRIZZLE   37  34  87 CALM      30.17R
MARIETTA       LGT RAIN  41  41  99 N5        30.13S
$$

GAZ059>098-102>109-201200-
CENTRAL GEORGIA

CITY           SKY/WX    TMP DP  RH WIND       PRES   REMARKS
AUGUSTA-BUSH   LGT RAIN  48  46  93 CALM      30.14F
AUGUSTA-DANIEL LGT RAIN  50  49  96 E6        30.14S
COLUMBUS       LGT RAIN  45  43  93 CALM      30.14R
MACON          CLOUDY    45  45 100 NW6       30.15R
ROBINS AFB     LGT RAIN  46  45  94 N8        30.15R


CITY           SKY/WX    TMP DP  RH WIND       PRES   REMARKS
LAGRANGE*      RAIN      46  45  97 CALM      30.14R
SYLVANIA*      RAIN      49  49 100 E3        30.15R
MILLEDGEVILLE* LGT RAIN  46  46 100 CALM      30.15R
$$

GAZ099>101-110>166-201200-
SOUTH GEORGIA

CITY           SKY/WX    TMP DP  RH WIND       PRES   REMARKS
SAVANNAH       CLOUDY    51  49  92 NE5       30.14S
VALDOSTA       CLOUDY    50  47  89 E3        30.10S
ALMA           CLOUDY    50  48  93 CALM      30.11S
ST SIMONS      CLOUDY    53  51  93 N6        30.11S
FT STEWART     CLOUDY    51  49  95 CALM      30.11R
ALBANY         CLOUDY    48  46  93 NE6       30.13R
HUNTER AFB     CLOUDY    52  52  99 NE3       30.12R
MOODY AFB      CLOUDY    50  48  92 N5        30.10R
BRUNSWICK      CLOUDY    54  50  87 N5        30.12S


CITY           SKY/WX    TMP DP  RH WIND       PRES   REMARKS
BAINBRIDGE*    MOCLDY    54  52  94 E6        30.10S
MOULTRIE*      CLOUDY    50  48  93 CALM      30.12R
VIDALIA*       LGT RAIN  50  48  93 CALM      30.12F
WAYCROSS*      CLOUDY    53  52  97 CALM      30.12R
DOUGLAS*       CLOUDY    52  48  87 NE5       30.13S
$$



USA.gov is the U.S. government's official web portal to all federal, state and local government web resources and services.